Weather in Karaburun

Turkey     38°38′11″N   26°30′34″E
temp.,
°C
wind,
m/s
gust,
m/s
humid.,
%
clouds,
%
prec.,
mm/h
press.,
hPa
HPBL,
m
8 may, sat
sat800:00+20se226498 0.0 101217
03:00+20e236058 0.0 101018
06:00+20ese2262100 0.0 101015
09:00+20n2265100 0.0 101232
12:00+22e3248100 0.0 1012188
15:00+23nw215092 0.0 1011309
18:00+22w57630 0.0 1011161
21:00+20sse02673 0.0 101214
9 may, sun
sun900:00+17ene67775 0.0 1015340
03:00+16ne67754 0.0 1016500
06:00+17ne69725 0.0 1018693
09:00+16ne68695 0.0 1020739
12:00+19nne68570 0.0 1020682
15:00+20nne912535 0.0 1019497
18:00+19nne912555 0.0 1019498
21:00+17nne910602 0.0 1020610
10 may, mon
mon1000:00+15nne79533 0.0 1020504
03:00+15nne68520 0.0 1019487
06:00+14ne69530 0.0 1018505
09:00+15ne610470 0.0 1019610
12:00+17ne58410 0.0 1019654
15:00+18n34430 0.0 1017266
18:00+20nne67530 0.0 1016314
21:00+17nne67590 0.0 1016327
11 may, tue
tue1100:00+15nne56560 0.0 1016444
03:00+14nne45580 0.0 1016429
06:00+14ne45600 0.0 1015427
09:00+15ne59573 0.0 1016541
12:00+17nne36455 0.0 1015366
15:00+20wnw12400 0.0 1013271
18:00+21nne56520 0.0 1012192
21:00+18ene56600 0.0 1012157
12 may, wed
wed1200:00+16ne45555 0.0 1012382
03:00+14ne33570 0.0 1011346
06:00+14ne44613 0.0 1011343
09:00+14ene33580 0.0 1011260
12:00+17ene1244100 0.0 1011179
15:00+18nw3246100 0.0 1010239
18:00+19w345499 0.0 1008120
21:00+18sw235913 0.0 100861